Location: Churchill Northern Studies Centre
(58.7378°N, 93.8201°W)
Time: 22:49:27
(UTC-05:00)

Envisat - Pass Details

Date: 16 October 2017
Orbit: 764 x 766 km, 98.2° (Epoch: 18 October)

Event Time Altitude Azimuth Distance (km) Brightness Sun altitude
Exits shadow 21:26:29 21° 203° (SSW) 1,689 4.7 -26.2°
Maximum altitude 21:29:32 42° 263° (W) 1,094 4.1 -26.6°
Drops below altitude 10° 21:34:22 10° 334° (NNW) 2,317 6.2 -27.1°
Sets 21:36:49 0° 342° (NNW) 3,247 6.9 -27.4°
